Location: Fenile
(46.0500°N, 9.5500°E)
Time: 08:11:48
(UTC+00:00)

CSL-04 Debris - Pass Details

Date: 03 March 2021
Orbit: 827 x 848 km, 98.9° (Epoch: 10 April)

Event Time Altitude Azimuth Distance (km) Brightness Sun altitude
Rises 18:22:38 0° 164° (SSE) 3,370 7.1 -13.2°
Reaches altitude 10° 18:24:58 10° 164° (SSE) 2,443 6.4 -13.6°
Maximum altitude 18:30:24 89° 250° (WSW) 848 4.2 -14.5°
Drops below altitude 10° 18:35:55 10° 345° (NNW) 2,475 6.9 -15.5°
Sets 18:38:18 0° 346° (NNW) 3,416 7.6 -15.9°
